Weather History for KRZL - May, 2013

Change the Weather History Date:

Friday, May 24, 2013

  Actual Average (KVPZ) Record (KVPZ)
Temperature  
Mean Temperature 48 °F 62 °F  
Max Temperature 60 °F 73 °F 90 °F (2010)
Min Temperature 37 °F 51 °F 39 °F (2013)
Degree Days  
Heating Degree Days 16 5  
Month to date heating degree days 190  
Since 1 July heating degree days 6249  
Cooling Degree Days 0 2  
Month to date cooling degree days 26  
Year to date cooling degree days 31  
Moisture  
Dew Point 35 °F    
Average Humidity 62    
Maximum Humidity 100    
Minimum Humidity 31    
Precipitation  
Precipitation 0.00 in 0.13 in 0.52 in (2006)
Month to date precipitation 3.05  
Year to date precipitation 12.23  
Sea Level Pressure  
Sea Level Pressure 30.34 in    
Wind  
Wind Speed 7 mph (North)    
Max Wind Speed 13 mph    
Max Gust Speed 18 mph    
Visibility 10 miles    
Events      
T = Trace of Precipitation, MM = Missing Value Source: NWS Daily Summary

Daily Weather History Graph

Daily Weather History Graph

Search for Another Location

Airport or City:

Trip Planner

Search our weather history database for the weather conditions in past years. The results will help you decide how hot, cold, wet, or windy it might be!

Date:

Astronomy

May. 24, 2013 Rise Set
Actual Time 5:23 AM CDT 8:08 PM CDT
Civil Twilight 4:51 AM CDT 8:40 PM CDT
Nautical Twilight 4:10 AM CDT 9:20 PM CDT
Astronomical Twilight 3:24 AM CDT 10:07 PM CDT
Moon 7:49 PM CDT 4:55 AM CDT
Length of Visible Light 15h 49m
Length of Day
14h 44m
Full, 100% of the Moon is Illuminated
May 24
Full
May 24
Full
May 31
Last Quarter
Jun 8
New
Jun 16
First Quarter

Hourly Weather History & Observations

Time (CDT) Temp. Windchill Dew Point Humidity Pressure Visibility Wind Dir Wind Speed Gust Speed Precip Events Conditions
12:15 AM 41.0 °F 34.7 °F 35.6 °F 81% 30.25 in 10.0 mi North 10.4 mph - N/A   Clear
12:35 AM 41.0 °F 35.2 °F 35.6 °F 81% 30.26 in 10.0 mi North 9.2 mph - N/A   Clear
12:55 AM 41.0 °F 35.2 °F 35.6 °F 81% 30.26 in 10.0 mi North 9.2 mph - N/A   Clear
1:15 AM 41.0 °F 36.4 °F 35.6 °F 81% 30.26 in 10.0 mi North 6.9 mph - N/A   Clear
1:35 AM 41.0 °F 36.4 °F 35.6 °F 81% 30.27 in 10.0 mi North 6.9 mph - N/A   Clear
1:55 AM 39.2 °F 35.0 °F 35.6 °F 87% 30.26 in 10.0 mi North 5.8 mph - N/A   Clear
2:15 AM 39.2 °F 34.2 °F 35.6 °F 87% 30.26 in 10.0 mi North 6.9 mph - N/A   Clear
2:35 AM 39.2 °F 33.6 °F 35.6 °F 87% 30.26 in 10.0 mi North 8.1 mph - N/A   Clear
2:55 AM 39.2 °F 34.2 °F 35.6 °F 87% 30.27 in 10.0 mi North 6.9 mph - N/A   Clear
3:15 AM 39.2 °F 35.9 °F 37.4 °F 93% 30.28 in 10.0 mi NNW 4.6 mph - N/A   Clear
3:35 AM 39.2 °F 33.6 °F 37.4 °F 93% 30.29 in 10.0 mi North 8.1 mph - N/A   Clear
3:55 AM 37.4 °F 34.9 °F 35.6 °F 93% 30.29 in 10.0 mi NNW 3.5 mph - N/A   Clear
4:15 AM 37.4 °F 34.9 °F 37.4 °F 100% 30.30 in 10.0 mi North 3.5 mph - N/A   Scattered Clouds
4:35 AM 41.0 °F 38.0 °F 37.4 °F 87% 30.30 in 10.0 mi NNW 4.6 mph - N/A   Overcast
4:55 AM 41.0 °F 38.0 °F 37.4 °F 87% 30.30 in 10.0 mi North 4.6 mph - N/A   Overcast
5:15 AM 39.2 °F - 37.4 °F 93% 30.31 in 10.0 mi Calm Calm - N/A   Mostly Cloudy
5:35 AM 37.4 °F 34.9 °F 35.6 °F 93% 30.33 in 10.0 mi WNW 3.5 mph - N/A   Scattered Clouds
5:55 AM 37.4 °F 32.8 °F 37.4 °F 100% 30.34 in 10.0 mi NW 5.8 mph - N/A   Clear
6:15 AM 39.2 °F 35.9 °F 37.4 °F 93% 30.35 in 10.0 mi NW 4.6 mph - N/A   Clear
6:35 AM 41.0 °F 37.1 °F 37.4 °F 87% 30.35 in 10.0 mi North 5.8 mph - N/A   Clear
6:55 AM 42.8 °F 40.1 °F 37.4 °F 81% 30.36 in 10.0 mi North 4.6 mph - N/A   Clear
7:15 AM 42.8 °F 39.3 °F 37.4 °F 81% 30.36 in 10.0 mi North 5.8 mph - N/A   Clear
7:35 AM 44.6 °F 41.4 °F 39.2 °F 81% 30.36 in 10.0 mi North 5.8 mph - N/A   Clear
7:55 AM 44.6 °F 40.7 °F 39.2 °F 81% 30.37 in 10.0 mi North 6.9 mph - N/A   Clear
8:15 AM 46.4 °F 41.9 °F 39.2 °F 76% 30.39 in 10.0 mi North 9.2 mph - N/A   Clear
8:35 AM 46.4 °F 42.4 °F 39.2 °F 76% 30.40 in 10.0 mi North 8.1 mph - N/A   Clear
8:55 AM 46.4 °F 41.9 °F 41.0 °F 81% 30.41 in 10.0 mi North 9.2 mph - N/A   Scattered Clouds
9:15 AM 48.2 °F - 41.0 °F 76% 30.41 in 10.0 mi North 9.2 mph - N/A   Scattered Clouds
9:35 AM 50.0 °F - 41.0 °F 71% 30.41 in 10.0 mi North 5.8 mph - N/A   Scattered Clouds
9:55 AM 50.0 °F - 39.2 °F 66% 30.41 in 10.0 mi NNW 8.1 mph - N/A   Scattered Clouds
10:15 AM 51.8 °F - 41.0 °F 67% 30.40 in 10.0 mi North 6.9 mph - N/A   Scattered Clouds
10:35 AM 51.8 °F - 41.0 °F 67% 30.40 in 10.0 mi NNE 11.5 mph 17.3 mph N/A   Clear
10:55 AM 53.6 °F - 39.2 °F 58% 30.41 in 10.0 mi North 9.2 mph - N/A   Clear
11:15 AM 53.6 °F - 37.4 °F 54% 30.41 in 10.0 mi North 8.1 mph 18.4 mph N/A   Clear
11:35 AM 53.6 °F - 37.4 °F 54% 30.40 in 10.0 mi NNE 11.5 mph - N/A   Clear
11:55 AM 55.4 °F - 35.6 °F 47% 30.40 in 10.0 mi NNE 12.7 mph - N/A   Clear
12:15 PM 55.4 °F - 35.6 °F 47% 30.39 in 10.0 mi North 9.2 mph - N/A   Clear
12:35 PM 57.2 °F - 35.6 °F 44% 30.39 in 10.0 mi NNE 10.4 mph - N/A   Clear
12:55 PM 57.2 °F - 35.6 °F 44% 30.39 in 10.0 mi North 6.9 mph - N/A   Clear
1:15 PM 59.0 °F - 35.6 °F 42% 30.39 in 10.0 mi North 9.2 mph - N/A   Clear
1:35 PM 59.0 °F - 35.6 °F 42% 30.39 in 10.0 mi North 9.2 mph 16.1 mph N/A   Clear
1:55 PM 59.0 °F - 33.8 °F 39% 30.39 in 10.0 mi North 6.9 mph 17.3 mph N/A   Clear
2:15 PM 59.0 °F - 33.8 °F 39% 30.38 in 10.0 mi North 11.5 mph - N/A   Clear
2:35 PM 59.0 °F - 33.8 °F 39% 30.38 in 10.0 mi North 8.1 mph 17.3 mph N/A   Clear
2:55 PM 59.0 °F - 32.0 °F 36% 30.37 in 10.0 mi North 9.2 mph 18.4 mph N/A   Clear
3:15 PM 60.8 °F - 33.8 °F 36% 30.38 in 10.0 mi North 9.2 mph - N/A   Clear
3:35 PM 60.8 °F - 33.8 °F 36% 30.37 in 10.0 mi North 10.4 mph 16.1 mph N/A   Clear
3:55 PM 60.8 °F - 32.0 °F 34% 30.36 in 10.0 mi North 9.2 mph 16.1 mph N/A   Clear
4:15 PM 60.8 °F - 32.0 °F 34% 30.36 in 10.0 mi North 5.8 mph - N/A   Clear
4:35 PM 60.8 °F - 32.0 °F 34% 30.34 in 10.0 mi NE 11.5 mph - N/A   Clear
4:55 PM 60.8 °F - 32.0 °F 34% 30.34 in 10.0 mi NNE 8.1 mph - N/A   Clear
5:15 PM 60.8 °F - 30.2 °F 31% 30.33 in 10.0 mi NNE 9.2 mph - N/A   Clear
5:35 PM 59.0 °F - 30.2 °F 34% 30.31 in 10.0 mi NNE 9.2 mph - N/A   Clear
5:55 PM 59.0 °F - 32.0 °F 36% 30.32 in 10.0 mi NNE 5.8 mph - N/A   Clear
6:15 PM 59.0 °F - 30.2 °F 34% 30.31 in 10.0 mi Calm Calm - N/A   Clear
6:35 PM 59.0 °F - 32.0 °F 36% 30.31 in 10.0 mi NNE 5.8 mph - N/A   Clear
6:55 PM 57.2 °F - 30.2 °F 36% 30.31 in 10.0 mi Calm Calm - N/A   Clear
7:15 PM 55.4 °F - 30.2 °F 38% 30.32 in 10.0 mi Calm Calm - N/A   Clear
7:35 PM 55.4 °F - 32.0 °F 41% 30.32 in 10.0 mi North 3.5 mph - N/A   Clear
7:55 PM 53.6 °F - 32.0 °F 44% 30.32 in 10.0 mi NNE 6.9 mph - N/A   Clear
8:15 PM 51.8 °F - 32.0 °F 47% 30.33 in 10.0 mi Calm Calm - N/A   Clear
8:35 PM 51.8 °F - 32.0 °F 47% 30.34 in 10.0 mi North 6.9 mph - N/A   Clear
8:55 PM 50.0 °F - 32.0 °F 50% 30.34 in 10.0 mi North 8.1 mph - N/A   Clear
9:15 PM 48.2 °F - 32.0 °F 54% 30.35 in 10.0 mi North 6.9 mph - N/A   Clear
9:35 PM 46.4 °F 42.9 °F 32.0 °F 57% 30.34 in 10.0 mi North 6.9 mph - N/A   Clear
9:55 PM 46.4 °F 42.9 °F 32.0 °F 57% 30.36 in 10.0 mi North 6.9 mph - N/A   Clear
10:15 PM 46.4 °F 42.9 °F 32.0 °F 57% 30.36 in 10.0 mi North 6.9 mph - N/A   Clear
10:35 PM 44.6 °F 40.7 °F 32.0 °F 61% 30.37 in 10.0 mi North 6.9 mph - N/A   Clear
10:55 PM 44.6 °F 42.2 °F 32.0 °F 61% 30.37 in 10.0 mi North 4.6 mph - N/A   Clear
11:15 PM 44.6 °F 42.2 °F 32.0 °F 61% 30.37 in 10.0 mi North 4.6 mph - N/A   Clear
11:35 PM 42.8 °F 41.1 °F 32.0 °F 66% 30.37 in 10.0 mi North 3.5 mph - N/A   Clear
11:55 PM 42.8 °F 40.1 °F 33.8 °F 70% 30.37 in 10.0 mi North 4.6 mph - N/A   Clear